Theta_e
326 319 329 323 307 307 304 311 323 322 322 327 328 325 323 327 324 325 347 350 351 353 359 364 366 367 367 365 364 363 362 363 362 360 360 361 362 363 363 363 363 362 362 362 361 360 358 357 356
324 321 319 311 303 299 303 312 319 321 324 327 326 326 323 319 330 344 344 350 351 351 354 361 366 367 367 365 363 362 362 363 362 360 361 361 362 363 363 363 363 363 362 360 359 359 358 357 356
322 323 309 305 302 299 303 314 313 324 326 327 325 335 332 329 334 347 350 351 348 348 355 363 366 366 366 365 363 362 362 363 363 361 362 362 362 362 362 362 363 363 362 360 358 357 357 356 356
316 311 309 302 301 307 310 311 314 318 323 332 332 333 342 348 347 351 352 351 348 350 356 363 365 365 365 364 363 362 362 363 362 362 362 362 362 361 361 362 362 361 361 360 358 357 355 354 354
313 307 300 299 303 308 315 312 312 314 319 332 336 333 337 347 352 354 352 351 349 350 355 359 364 364 365 364 364 363 362 362 362 362 362 362 361 361 360 361 360 361 360 359 358 357 355 354 354
307 309 300 299 304 313 314 312 315 315 321 326 335 335 335 347 349 352 353 350 354 349 351 354 362 363 363 364 363 363 362 362 362 362 361 361 361 360 360 360 360 360 360 359 359 357 356 355 354
304 305 302 303 307 311 313 316 311 311 311 316 334 330 335 343 347 351 351 356 353 348 349 353 356 359 362 362 362 362 362 362 362 361 361 361 361 359 359 359 360 360 360 359 359 358 357 356 355
309 306 304 305 308 308 316 314 312 310 310 318 324 323 325 337 344 346 349 354 349 348 348 348 352 355 354 356 361 361 361 361 360 360 360 360 360 359 359 357 358 359 359 359 357 357 357 357 356
314 302 301 306 309 311 316 315 315 316 312 313 319 319 324 330 336 337 342 349 347 348 347 347 349 349 350 352 357 360 360 360 359 359 359 356 350 352 355 356 357 358 358 358 357 357 357 357 357
309 302 305 311 313 313 315 314 312 314 311 310 313 319 325 327 323 326 331 338 346 346 347 349 349 348 347 351 353 353 354 354 352 352 352 349 346 346 350 352 355 356 357 358 358 358 358 358 352
307 305 311 314 315 317 315 313 313 312 308 309 308 311 314 314 313 317 316 317 339 349 349 350 349 349 347 350 349 348 349 349 348 347 348 345 345 346 347 346 348 350 355 352 353 352 354 351 348
303 308 312 313 314 316 314 311 307 310 313 313 312 312 312 311 311 311 313 320 332 344 350 352 352 353 353 351 347 348 347 345 345 346 347 344 343 349 347 347 348 348 349 348 348 347 348 348 349
305 308 310 312 311 310 312 308 307 307 315 316 312 314 311 310 313 313 313 316 323 329 342 349 350 351 355 356 356 352 349 348 347 347 350 352 348 346 347 346 345 343 346 344 340 339 341 342 342
307 309 308 308 308 306 306 306 307 309 313 312 312 310 311 312 312 310 313 314 321 324 325 336 349 349 351 354 353 355 351 351 353 352 352 352 348 347 349 348 349 349 348 346 344 341 341 339 335
307 302 303 304 305 306 306 304 305 309 311 309 311 310 311 312 314 311 313 314 321 323 330 340 347 351 350 353 355 352 352 350 346 349 347 348 346 349 346 349 342 338 334 329 329 329 328 326 326
302 300 294 302 306 307 305 298 305 308 307 307 309 310 310 312 313 316 316 317 321 325 324 326 351 353 352 356 356 355 354 351 347 348 347 345 334 343 341 339 333 329 328 330 328 327 323 323 325
298 292 295 301 307 305 302 298 306 309 308 307 307 308 310 310 319 321 323 324 324 326 326 329 352 353 354 354 354 355 354 351 348 344 346 345 345 346 335 331 328 328 328 328 327 325 324 324 325
293 295 297 299 303 304 299 300 304 307 308 308 308 308 309 317 318 321 322 323 326 327 326 327 336 353 354 352 351 353 351 346 347 345 344 344 338 334 333 331 329 328 328 327 327 325 325 325 323
301 299 297 302 303 300 299 300 303 305 304 305 306 306 314 316 320 322 326 330 333 334 333 331 335 348 350 347 343 344 337 335 341 342 342 333 333 333 329 328 329 327 326 325 326 326 326 323 323
299 296 296 300 305 301 298 300 303 304 305 304 305 307 313 317 319 323 324 327 331 334 337 339 342 342 340 338 340 338 336 335 334 334 331 332 330 329 329 326 326 325 323 322 323 319 317 317 320
297 297 298 297 301 300 297 296 300 305 306 308 308 311 317 318 319 322 325 326 329 330 333 332 331 333 331 330 332 332 331 332 329 332 329 328 329 328 325 325 324 323 321 318 319 320 318 314 315
294 302 302 300 296 289 297 285 295 299 302 305 306 307 313 317 319 322 323 323 326 327 328 327 328 327 328 329 329 325 327 326 330 330 326 322 325 324 324 323 322 322 319 318 318 320 317 316 315
299 302 298 298 293 291 293 288 293 299 300 304 306 308 310 313 317 319 321 322 325 325 324 325 324 323 323 324 324 323 321 322 327 326 322 320 321 322 322 322 321 320 318 318 319 318 315 316 314
304 299 297 295 291 285 293 292 291 297 301 304 306 308 311 316 316 315 319 318 317 322 324 323 321 320 320 321 321 320 320 320 322 322 320 324 321 320 321 321 319 318 318 317 317 317 317 316 316
300 291 284 284 284 286 293 292 295 301 305 306 306 307 308 310 311 311 309 310 312 313 315 318 316 315 319 319 319 319 318 318 321 321 319 319 317 316 318 316 317 317 317 317 316 315 315 315 314
293 290 286 281 283 285 292 290 294 304 306 308 307 306 308 308 308 309 310 309 310 313 311 314 312 313 311 313 319 319 320 317 316 318 318 316 316 316 318 316 316 317 317 316 315 314 315 315 314
293 290 293 288 287 284 289 296 302 305 304 304 305 305 304 306 307 309 310 311 310 311 311 312 308 309 315 313 312 316 319 318 317 317 318 316 318 319 318 318 316 316 316 316 314 313 313 314 314
293 298 288 288 281 280 287 289 292 297 300 302 301 300 301 301 302 303 305 305 305 305 307 309 309 310 312 311 313 313 315 315 318 319 317 318 319 319 317 316 316 315 315 315 313 313 314 313 314
295 292 291 291 289 282 281 286 297 296 297 297 300 300 300 301 301 302 303 304 304 305 305 305 306 306 307 311 312 312 313 315 316 314 317 315 315 315 315 317 315 315 315 313 312 311 313 313 312
298 294 293 285 286 287 285 285 298 298 298 299 300 301 301 301 301 301 302 303 303 304 304 303 303 303 305 309 310 310 310 312 311 311 312 313 313 313 314 314 314 314 313 311 309 310 312 313 313
Wind_Speed
4 7 5 2 5 3 5 6 27 26 18 7 10 9 18 9 7 4 9 16 16 12 9 12 15 15 15 14 14 14 14 13 13 14 13 13 12 12 12 11 11 11 11 10 10 8 8 8 8
2 6 2 2 4 2 8 8 17 16 15 10 11 14 5 4 4 16 11 16 15 12 8 10 15 15 14 14 13 13 13 13 13 13 12 12 12 11 10 10 10 10 10 10 9 8 7 6 6
5 6 2 4 3 3 5 5 3 20 28 20 9 5 9 10 6 5 18 17 15 11 9 11 14 14 14 13 13 13 14 14 13 13 12 12 11 10 9 9 9 8 9 8 7 7 6 5 4
4 3 5 2 7 12 1 3 5 1 14 17 19 11 9 11 9 13 21 18 14 11 10 12 13 14 13 13 13 13 13 13 13 13 12 12 11 10 9 9 8 7 7 6 6 5 5 3 2
2 2 2 3 9 7 14 3 3 6 5 16 20 10 10 13 19 23 21 18 15 11 9 9 12 13 13 13 12 12 12 13 13 13 13 12 11 10 10 8 7 6 6 6 5 4 4 3 2
4 2 5 4 8 11 5 7 7 12 15 9 22 15 7 13 16 19 20 18 18 15 10 8 11 11 11 11 11 11 11 11 12 12 12 12 11 11 11 10 9 8 7 6 6 5 3 3 3
3 1 5 6 9 9 11 23 7 7 8 6 15 14 7 11 12 16 18 20 19 19 16 13 10 10 11 10 10 10 10 10 10 11 10 10 10 10 10 9 9 8 7 5 4 4 4 5 5
2 3 7 4 8 6 13 14 9 10 6 7 7 5 3 4 13 14 19 20 19 16 15 13 12 13 10 8 12 11 11 10 10 10 10 10 10 10 9 9 9 8 8 7 6 6 7 7 8
3 4 3 5 6 6 10 18 14 15 4 8 7 11 6 3 5 9 13 18 16 14 16 14 12 10 11 10 10 12 14 12 11 9 9 7 3 5 7 8 10 11 9 8 8 8 8 9 9
2 2 3 4 5 8 11 11 10 14 13 7 7 7 5 3 2 4 5 12 17 17 16 13 13 12 13 10 11 8 8 6 5 5 5 4 5 5 8 9 12 10 9 9 10 10 9 8 4
8 6 6 7 3 6 11 16 9 10 9 7 6 5 5 6 8 8 7 5 14 18 15 16 14 13 13 9 7 5 4 6 5 7 6 6 4 5 5 2 4 4 7 3 6 4 4 6 5
7 10 10 10 5 5 14 9 7 7 9 5 6 6 6 9 9 8 8 9 12 10 17 14 10 8 11 8 7 6 5 5 4 6 9 5 2 3 4 3 3 4 4 5 4 3 5 6 7
7 10 11 10 7 8 5 7 9 6 9 10 4 4 7 2 5 7 7 9 10 11 8 8 8 9 9 10 5 6 6 6 6 6 7 5 5 4 4 4 4 4 3 4 3 2 3 3 5
11 12 10 9 11 3 1 9 3 9 5 8 8 4 6 3 5 1 7 7 10 9 8 7 8 7 7 6 7 5 4 2 4 4 5 5 4 5 4 1 3 2 3 3 1 3 3 4 4
7 4 6 4 7 7 3 11 9 8 9 8 3 4 4 6 8 1 7 9 8 8 9 9 9 8 8 8 6 5 5 4 4 5 3 8 9 6 6 5 4 2 2 3 4 5 4 5 6
7 4 2 7 9 11 13 11 11 9 10 9 5 2 5 8 5 7 8 9 10 7 7 5 6 7 7 5 4 3 3 4 4 4 4 9 11 7 8 3 3 1 4 5 5 4 4 5 5
6 6 9 18 16 11 10 4 12 8 8 7 6 5 5 3 14 12 11 10 8 9 7 9 7 6 6 4 1 3 3 4 7 4 4 8 10 8 6 5 3 6 5 5 3 3 3 4 5
8 8 9 14 19 16 8 6 5 4 7 8 6 5 1 10 9 10 11 11 10 10 9 9 5 6 5 2 2 2 1 4 5 6 4 6 5 6 6 4 6 6 5 4 3 4 3 2 5
15 12 7 3 4 8 8 2 6 9 4 7 8 6 13 12 8 10 13 14 13 13 12 10 8 5 4 2 2 2 2 2 4 2 5 6 6 7 7 5 6 4 5 3 5 3 4 4 3
3 5 8 4 9 7 4 8 9 8 8 7 9 7 14 11 11 12 11 12 10 11 10 13 11 9 7 4 3 4 4 3 4 3 4 5 6 6 7 6 4 5 3 5 4 3 3 2 4
4 3 7 5 4 3 2 6 11 9 8 8 8 11 13 15 13 11 13 11 11 10 11 12 11 10 9 9 4 4 4 3 2 2 2 2 7 7 7 5 4 4 4 3 3 4 4 3 3
1 7 9 10 9 2 5 6 8 5 8 10 9 10 12 13 11 12 12 9 10 8 9 9 8 8 7 10 8 7 5 2 3 2 2 4 7 6 5 5 5 4 3 4 2 3 3 2 4
3 7 5 5 6 7 10 2 9 7 9 9 9 9 9 9 12 12 11 9 9 8 8 7 7 7 7 8 7 6 5 4 6 4 5 5 4 2 5 7 6 5 3 3 4 5 6 3 2
5 5 7 5 3 3 16 8 8 3 10 7 5 9 10 17 15 9 10 14 9 8 6 5 6 4 6 6 7 6 6 5 5 4 4 4 4 5 6 6 5 4 5 5 4 4 5 5 5
4 7 5 6 2 6 11 5 10 18 22 19 20 16 13 13 12 13 10 9 11 9 9 8 8 8 8 3 4 5 5 4 3 4 3 5 4 3 3 5 6 4 4 5 5 5 5 6 5
6 4 4 2 2 5 9 7 4 14 16 15 12 9 9 8 8 9 8 8 8 6 7 6 7 5 6 10 9 4 2 1 2 3 4 2 1 2 3 4 4 5 5 6 5 3 5 6 6
7 5 3 2 5 5 4 4 8 9 8 10 9 8 7 9 9 9 8 7 7 5 7 4 5 2 4 6 3 6 5 6 4 4 2 3 3 3 1 2 2 4 5 5 6 4 6 6 6
3 3 7 5 0 3 5 7 5 13 13 13 9 12 11 9 11 12 12 11 10 10 9 10 12 13 9 8 6 3 3 5 5 4 4 6 4 3 1 3 3 4 5 6 4 6 6 6 5
5 4 4 3 3 2 3 6 7 7 4 6 11 9 12 16 14 14 13 11 12 11 10 8 9 9 11 8 7 7 6 4 2 2 3 3 6 6 3 5 4 5 5 5 7 4 8 7 7
4 2 2 6 4 1 6 7 7 13 15 15 17 15 12 10 11 11 12 14 14 13 11 8 8 8 7 5 6 6 5 6 6 5 3 3 4 3 6 5 5 4 3 3 5 7 6 8 9
Wind_Direction
308 294 159 358 36 79 261 318 101 142 172 187 144 147 160 155 170 164 149 122 122 124 130 120 121 126 128 127 125 125 126 123 117 119 120 118 113 109 108 107 106 105 103 102 104 98 86 78 73
322 310 138 272 91 0 292 79 97 115 123 129 142 133 179 124 253 117 123 126 122 134 123 121 123 125 130 130 129 131 131 128 126 128 126 125 123 121 118 115 111 111 111 113 114 109 98 88 85
289 173 74 145 209 190 256 300 91 122 140 161 119 168 153 141 176 81 120 120 123 125 122 126 124 125 129 132 132 135 136 133 134 133 132 131 129 129 127 120 113 114 117 121 122 121 118 113 109
307 32 329 96 274 281 22 329 350 355 151 135 145 78 86 126 131 126 126 126 131 123 123 125 127 129 132 134 135 137 138 139 140 140 141 139 139 141 144 139 136 131 128 125 122 115 107 107 111
237 328 317 326 288 266 265 338 321 310 62 119 112 114 94 103 125 128 133 139 131 119 118 120 130 130 132 136 138 141 144 146 145 145 146 146 147 149 152 155 154 144 138 133 130 130 134 145 173
328 92 359 326 329 321 356 360 19 39 71 54 108 119 120 135 133 146 143 133 130 127 122 131 128 129 133 138 142 144 145 146 146 149 152 154 156 158 161 165 168 164 160 157 157 159 174 210 229
201 290 260 336 359 339 340 350 44 75 52 58 123 120 143 159 158 147 143 136 140 141 146 147 145 142 140 141 145 147 149 150 152 155 159 160 163 164 168 172 174 177 173 176 187 194 212 228 241
284 79 342 15 2 322 303 350 356 64 31 59 106 113 167 160 139 146 143 144 146 149 151 156 154 149 147 151 155 154 155 156 159 163 165 166 169 170 175 181 187 188 190 196 210 221 231 239 243
288 25 340 324 351 294 321 341 349 339 50 90 100 120 151 109 147 137 147 149 150 155 155 157 154 159 156 158 164 162 162 162 166 164 167 165 165 184 188 192 201 203 202 205 220 230 237 247 255
180 176 204 243 293 350 327 310 337 350 346 32 85 81 98 133 319 77 177 170 161 161 155 154 159 175 165 165 156 163 170 161 152 158 165 182 201 188 198 209 216 201 208 214 231 235 244 261 258
239 224 227 246 278 77 296 291 337 356 345 32 36 48 73 58 11 6 337 16 177 157 160 165 174 175 170 154 158 165 172 167 169 169 171 201 206 213 210 178 172 194 214 230 241 226 223 235 241
196 236 243 250 189 192 218 300 328 325 293 41 59 88 55 12 357 345 354 46 76 107 152 160 162 138 132 142 174 165 166 176 161 176 184 194 191 176 140 123 164 197 198 204 234 192 213 235 253
232 220 217 239 254 191 249 279 269 276 299 323 29 69 110 41 306 310 309 95 106 104 125 130 119 117 138 152 169 161 165 183 170 178 196 163 155 116 116 145 170 201 195 198 218 216 246 275 301
259 281 188 209 237 213 232 259 310 288 291 297 330 52 34 1 292 221 50 56 113 118 124 123 121 116 109 102 107 121 151 132 146 94 86 348 79 30 3 308 203 191 179 239 243 267 316 327 349
270 318 299 210 188 219 256 306 280 267 247 210 118 63 22 333 326 243 120 89 135 129 132 123 133 122 119 107 124 134 145 126 109 120 141 101 87 94 255 231 327 109 120 94 39 29 32 16 357
307 12 318 254 240 228 160 230 268 277 269 147 155 299 267 253 240 38 93 100 86 116 111 131 115 118 111 110 128 147 150 139 140 108 146 129 150 179 221 172 179 102 54 51 57 26 10 358 2
318 240 257 269 236 226 155 156 254 245 135 163 199 227 262 321 50 48 52 48 58 73 54 51 92 109 118 123 146 168 174 145 91 100 124 149 179 189 210 137 117 70 52 58 33 19 38 344 327
246 249 257 256 261 204 143 196 279 260 170 189 180 207 205 95 76 58 51 47 44 41 48 24 70 142 126 115 323 335 278 82 119 141 152 152 140 157 90 73 56 58 60 32 21 15 355 325 295
245 275 278 319 95 97 160 182 272 287 189 202 198 194 110 106 91 68 58 49 39 30 24 12 11 130 96 34 330 356 291 88 99 98 140 134 97 76 80 71 70 63 62 28 12 6 354 319 318
307 326 313 352 44 61 62 273 246 245 255 174 151 128 111 98 80 71 64 60 50 38 35 34 23 32 34 13 350 19 85 40 109 126 109 112 107 96 85 80 70 63 55 26 26 23 328 305 3
295 356 5 12 20 15 268 288 285 272 212 107 96 100 104 107 101 90 77 73 64 49 38 42 32 38 30 4 9 29 53 6 353 105 32 140 118 102 105 111 102 83 76 31 359 18 36 312 308
332 24 15 357 13 293 56 279 288 295 96 103 98 96 115 118 116 111 107 106 107 94 73 49 40 38 40 43 44 52 7 8 306 77 211 84 89 109 128 128 113 98 80 43 353 352 333 6 318
107 40 343 304 307 359 291 17 263 132 114 111 128 130 124 140 117 117 124 127 116 116 105 90 67 50 47 56 53 50 33 338 22 10 17 33 10 52 60 82 78 61 38 10 6 354 325 308 292
320 342 318 264 161 307 261 175 309 126 142 130 124 104 81 82 76 50 68 62 53 48 61 97 101 87 71 67 72 68 55 21 22 345 344 352 13 47 42 53 49 33 25 12 336 324 318 299 286
3 46 334 357 75 208 332 48 18 58 68 78 76 75 74 76 74 73 75 73 73 72 78 59 42 30 351 21 105 98 110 109 74 64 26 21 3 352 13 37 29 22 359 342 325 315 304 287 275
306 110 127 319 40 275 313 35 38 65 85 86 79 86 75 69 81 89 90 78 68 59 48 82 91 70 65 56 349 354 104 97 117 140 138 129 322 331 30 19 12 3 343 318 307 302 283 277 273
324 62 270 16 328 46 119 61 33 43 71 57 58 64 77 58 55 66 51 53 63 44 33 44 347 7 76 107 126 84 355 322 242 236 221 191 201 197 269 0 355 319 306 300 299 285 281 272 274
190 276 24 356 138 289 319 56 114 39 47 29 10 57 43 41 43 35 37 32 23 22 36 36 25 12 357 348 357 336 120 120 3 306 302 287 263 253 239 252 266 287 309 294 303 305 283 291 289
15 19 12 93 93 156 341 282 95 45 31 75 73 63 43 43 26 25 25 24 15 12 20 26 30 14 2 1 1 2 349 360 5 74 83 300 337 334 331 307 302 285 286 326 302 341 324 320 310
73 10 89 112 304 181 163 267 356 6 57 48 43 45 39 37 28 20 16 10 2 1 4 4 8 356 344 358 350 339 353 359 354 343 323 328 320 347 318 301 288 277 304 353 334 340 325 318 309